Regional Weather Roundup
Issued by NWS

Home | Current Version | Previous Version | Text Only | Print | Product List | Glossary Off
Versions: 1 2 3 4 5 6 7 8 9 10 11 12 13 14 15 16 17 18 19 20 21 22 23 24 25 26 27 28 29 30 31 32 33 34 35 36 37 38 39 40 41 42 43 44 45 46 47 48 49 50

000
ASUS43 KDTX 262201
RWRMI
MICHIGAN HOURLY REGIONAL WEATHER ROUNDUP
NATIONAL WEATHER SERVICE DETROIT/PONTIAC MI
500 PM EST FRI DEC 26 2014

NOTE: "FAIR" INDICATES FEW OR NO CLOUDS BELOW 12,000 FEET WITH NO
SIGNIFICANT WEATHER AND/OR OBSTRUCTION TO VISIBILITY.

MIZ047>049-052>055-059>063-066>070-074>076-081>083-262300-
SOUTHEAST LOWER MICHIGAN

CITY           SKY/WX    TMP DP  RH WIND       PRES   REMARKS
ADRIAN         PTCLDY    43  38  82 SW5       30.09S
ALMA           MOCLDY    44  37  77 S5        30.04R
ANN ARBOR      PTCLDY    42  36  79 S5        30.08S
BAD AXE        CLOUDY    39  37  92 N3        30.06R
CARO           MOCLDY    44  36  75 SW3       30.05R
DETROIT CITY   PTCLDY    45  35  68 SW7       30.10R
DETROIT        MOCLDY    43  37  79 S7        30.10S
FLINT          CLEAR     46  35  65 SW5       30.06R
GROSSE ILE     PTCLDY    39  37  93 S7        30.09S WCI  34
HILLSDALE      PTCLDY    45  38  78 SW6       30.06S
HOWELL         CLEAR     44  35  72 S7        30.05R

CITY           SKY/WX    TMP DP  RH WIND       PRES   REMARKS
JACKSON        CLEAR     45  36  70 S8        30.05S
LAMBERTVILLE   PTCLDY    46  37  71 S7        30.10S
LANSING        PTCLDY    44  35  70 S7        30.05S
LAPEER         FAIR      43  34  70 SW7       30.06R
MASON          PTCLDY    44  35  71 CALM      30.05S
MONROE         PTCLDY    45  37  76 S3        30.08S
MT. CLEMENS    MOCLDY    43  37  79 S6        30.07R
PONTIAC        PTCLDY    43  35  73 S7        30.06R
PORT HOPE        N/A     40  33  76 NW3       30.05R
PORT HURON     PTCLDY    41  36  81 S7        30.09S
TRI CITIES     CLOUDY    44  37  76 S3        30.05R
TROY           CLEAR     45  37  71 S6        30.10R
SAGINAW HB     MOCLDY    45  37  76 SW6       30.05R
$$
MIZ043>046-050>051-056>058-064>065-071>073-077>080-262300-
SOUTHWEST LOWER MICHIGAN

CITY           SKY/WX    TMP DP  RH WIND       PRES   REMARKS
BATTLE CREEK   PTCLDY    45  36  70 S8        30.05R
BENTON HARBOR  MOCLDY    47  39  74 S6        30.03R
BIG RAPIDS     CLOUDY    40  37  87 S5        30.01S
COLDWATER      PTCLDY    46  37  71 S5        30.05S
FREMONT        CLOUDY    40  36  84 S3        30.02R
HOLLAND        MOCLDY    46  37  71 SW10      30.02F
GRAND RAPIDS   MOCLDY    44  35  70 SW6       30.03S
IONIA          FAIR      45  36  70 SW6       30.02F
KALAMAZOO      PTCLDY    47  37  68 S8        30.05R
MARSHALL       CLEAR     45  37  72 SW7       30.05R
MOUNT PLEASANT CLOUDY    39  34  83 CALM      30.03S
MUSKEGON       CLOUDY    42  36  79 S10       30.02S
SOUTH HAVEN    PTCLDY    48  37  67 CALM      30.02S
$$
MIZ016>042-262300-
NORTHERN LOWER MICHIGAN

CITY           SKY/WX    TMP DP  RH WIND       PRES   REMARKS
ALPENA         MOCLDY    38  33  82 S6        30.03R WCI  33
BEAVER ISLAND  CLOUDY    39  37  93 CALM      30.00S
BELLAIRE       CLOUDY    41  35  79 S3        30.01S
CADILLAC       CLOUDY    37  34  91 SE5       29.99S WCI  33
CHARLEVOIX     CLOUDY    40  36  85 CALM      30.03S
FRANKFORT      CLOUDY    40  37  90 S6        30.00R
GAYLORD        CLOUDY    35  33  92 S3        30.00R
GRAYLING       CLOUDY    37  35  90 S7        30.01S WCI  32
HARBOR SPRINGS CLOUDY    39  35  83 CALM      30.01R
HOUGHTON LAKE  CLOUDY    36  33  89 S3        30.02R
MANISTEE       CLOUDY    41  34  75 CALM      30.01R
OSCODA         CLOUDY    38  34  85 SW5       30.05R WCI  34
PELLSTON       CLOUDY    39  34  82 CALM      30.01R
ROGERS CITY    CLOUDY    37  35  92 S3        30.04R
TRAVERSE CITY  CLOUDY    42  35  76 SE5       29.99S
$$
MIZ007>008-015-262300-
EASTERN UPPER MICHIGAN

CITY           SKY/WX    TMP DP  RH WIND       PRES   REMARKS
KINROSS        CLOUDY    36  36 100 CALM      30.00S VSB 3/4
MACKINAC ISLAN CLOUDY    38  37  93 SW3       30.01R
NEWBERRY       CLOUDY    32  32 100 N5        30.00R FOG     WCI  27
S. S. MARIE    FOG       34  33  96 CALM      30.01R VSB 3/4
MUNISING         N/A     37  33  85 N5        30.00R WCI  33
$$
MIZ004>006-011>014-085-262300-
CENTRAL UPPER MICHIGAN

CITY           SKY/WX    TMP DP  RH WIND       PRES   REMARKS
MANISTIQUE     CLOUDY    33  33 100 N3        30.01R FOG
ESCANABA       CLOUDY    34  30  86 CALM      30.01R
MENOMINEE      CLOUDY    36  32  87 E8        29.99R WCI  29
SAWYER-GWINN   CLOUDY    32  30  93 NE6       29.99R WCI  26
$$
MIZ001>003-009>011-084-262300-
WESTERN UPPER MICHIGAN

CITY           SKY/WX    TMP DP  RH WIND       PRES   REMARKS
IRON MOUNTAIN  CLOUDY    33  30  88 N3        29.99R
HOUGHTON       CLOUDY    32  26  78 CALM      30.01R
COPPER HARBOR    N/A     35  27  72 NE6       30.03R WCI  30
IRONWOOD       CLOUDY    30  28  93 N6        30.00R WCI  24
$$

ABBREVIATIONS USED IN REMARKS
   TC - TEMPERATURE IN CELSIUS
  WCI - WIND CHILL INDEX
   HX - HEAT INDEX
  VSB - VISIBILITY



USA.gov is the U.S. government's official web portal to all federal, state and local government web resources and services.